Location: Mount Tamalpais State Park
(37.9108°N, 122.6128°W)
Time: 04:20:51
(UTC-08:00)

Daily predictions for brighter satellites

Satellite Brightness Start Highest point End
(mag) Time Altitude Azimuth Time Altitude Azimuth Time Altitude Azimuth
Cosmos 2369 Rocket 4.3 03:37:58 19° NNE 03:37:58 19° NNE 03:39:31 10° NNE
Lacrosse 5 3.9 03:46:45 23° NE 03:46:45 23° NE 03:48:39 10° NE
ATLAS 5 CENTAUR R/B 3.7 04:09:31 24° NNE 04:09:31 24° NNE 04:11:40 10° NNE
Cosmos 1943 Rocket 3.0 04:15:00 40° N 04:15:00 40° N 04:18:31 10° NNE
USA 234 3.2 04:09:10 10° NE 04:15:42 74° SE 04:16:39 64° S
Cosmos 1452 Rocket 3.7 04:22:58 69° ESE 04:23:03 69° ESE 04:28:19 10° NNE
CZ-4C R/B 2.2 04:25:11 70° SE 04:25:24 71° ESE 04:31:10 10° NE
CZ-4B R/B 3.5 04:22:50 10° N 04:27:18 54° NNW 04:27:18 54° NNW
ATLAS 3B R/B 4.2 04:25:44 10° S 04:32:31 36° ESE 04:39:07 10° NE
ADEOS II 2.6 04:32:21 10° N 04:36:07 44° NNW 04:36:07 44° NNW
Cosmos 407 Rocket 4.4 04:40:25 34° S 04:40:25 34° S 04:43:24 10° S
Cosmos 676 Rocket 3.9 04:41:07 23° NNW 04:44:30 86° WSW 04:49:50 10° SSE
Cosmos 1553 Rocket 4.4 04:40:00 10° S 04:46:04 64° E 04:52:17 10° NNE
Cosmos 1140 Rocket 3.7 04:48:02 10° NNW 04:53:16 69° ENE 04:58:29 10° SSE
Cosmos 2221 Rocket 3.5 04:53:34 49° SSW 04:54:45 80° W 04:59:20 10° N
Meteor 1-14 Rocket 4.2 04:49:22 10° N 04:55:12 86° E 05:00:51 10° S
ATLAS CENTAUR R/B 3.9 04:54:33 38° W 04:57:08 50° SW 05:14:24 10° SSE
Okean 1-7 2.8 04:59:41 37° SSW 05:01:21 80° W 05:05:37 10° N
Meteor 1-31 Rocket 2.7 05:05:31 10° N 05:09:20 56° WNW 05:09:20 56° WNW
Meteor 1-26 Rocket 4.3 05:06:36 27° SW 05:09:28 50° WNW 05:14:55 10° N
Cosmos 1656 Rocket 3.9 05:12:56 31° WSW 05:15:13 48° WNW 05:20:43 10° N
Meteor 1-25 Rocket 4.2 05:11:47 10° N 05:17:40 87° W 05:23:30 10° S
Cosmos 2369 Rocket 4.2 05:19:46 11° NW 05:19:46 11° NW 05:20:35 10° NNW
Cosmos 2219 3.1 05:13:37 10° NNW 05:19:20 87° WSW 05:24:57 10° SSE
GEOS 3 Rocket 3.9 05:17:43 10° S 05:22:30 42° WSW 05:25:20 22° WNW
Cosmos 1782 Rocket 3.8 05:18:31 10° NNW 05:22:46 44° W 05:26:58 10° SSW
Cosmos 2227 Rocket 4.0 05:18:02 10° N 05:23:04 31° ENE 05:28:03 10° ESE
Cosmos 1850 Rocket 4.0 05:21:47 10° NNW 05:27:09 88° ENE 05:32:26 10° SSE
Lacrosse 5 3.4 05:25:58 18° NW 05:27:11 19° NNW 05:30:49 10° NNE
Tiangong 1 2.0 05:27:16 29° NNW 05:27:43 31° N 05:30:24 10° ENE
Cosmos 1932 4.5 05:22:24 10° SSW 05:28:44 86° WNW 05:35:16 10° NNE
Cosmos 1954 Rocket 4.5 05:28:15 10° NW 05:33:07 37° W 05:37:58 10° SSW
SKYMED 2 3.5 05:29:06 10° SSE 05:33:25 85° WSW 05:37:47 10° NNW
CZ-4 R/B 4.4 05:30:49 10° NE 05:33:52 20° E 05:36:52 10° SE
Okean-O 3.4 05:33:00 10° N 05:36:51 29° WNW 05:39:12 18° WSW
Ariane Rocket 3.7 05:31:55 10° NNE 05:36:57 58° E 05:41:55 10° S
Cosmos 1745 Rocket 3.9 05:31:54 10° NNW 05:37:59 65° W 05:44:01 10° S
Cosmos 1420 Rocket 4.4 05:34:39 14° SW 05:38:39 39° WNW 05:43:30 10° N
Cosmos 1386 Rocket 4.4 05:33:54 10° N 05:39:59 84° W 05:46:08 10° S
Meteor 2-10 Rocket 4.5 05:40:04 20° W 05:41:43 23° WNW 05:45:45 10° NNW
Meteor 1-10 Rocket 4.1 05:36:59 10° SSW 05:42:32 72° W 05:48:11 10° N
NOAA 6 4.2 05:40:25 10° N 05:45:22 48° WNW 05:50:16 10° SW
Cosmos 1674 Rocket 3.8 05:41:03 10° S 05:45:26 72° E 05:49:52 10° NNE
COSMOS 2455 4.3 05:40:47 10° S 05:46:19 40° ESE 05:51:53 10° NE
IDEFIX/ARIANE 42P 4.1 05:44:58 10° NNE 05:49:52 40° E 05:54:44 10° SSE
Okean 2 Rocket 3.9 05:47:53 10° NNW 05:51:39 28° W 05:55:25 10° SSW
Gblst 52 Del rocket 4.4 05:46:27 10° SW 05:52:07 82° SE 05:58:31 10° NE
Meteor 1-28 Rocket 3.1 05:50:23 10° S 05:54:03 64° W 05:57:47 10° NNW
DELTA 2 R/B (2) 4.1 05:53:22 15° SW 05:55:08 41° SSE 05:56:58 10° E
Cosmos 1331 Rocket 4.2 05:51:56 10° SSW 05:57:05 78° ESE 06:02:19 10° NNE
Cosmos 1943 Rocket 4.1 05:56:50 10° WNW 05:57:44 10° NW 05:58:38 10° NW
DMSP B5D1-3 4.5 05:52:52 10° S 05:57:54 66° WSW 06:03:00 10° NNW
USA 234 4.0 05:52:34 10° NNE 05:58:21 35° NNW 06:04:01 10° W
Cosmos 1536 4.4 05:55:47 10° N 05:59:33 39° E 06:03:19 10° SSE
USA 238 DEB 3.9 05:53:15 10° SSW 06:00:16 84° ESE 06:07:19 10° NE
USA 238 3.9 05:53:20 10° SSW 06:00:21 83° ESE 06:07:25 10° NE
Thor Agena Rocket 4.5 05:56:31 10° SSW 06:00:49 26° W 06:05:06 10° NW
Delta 2 Rocket 4.0 05:58:56 12° WSW 06:03:22 69° S 06:08:46 10° E
Lacrosse 5 rocket 2.4 06:01:36 10° NNW 06:04:58 37° NE 06:08:21 10° ESE
Okean 1 Rocket 3.6 06:03:26 10° N 06:07:50 65° E 06:12:08 10° SSE
Cosmos 1110 Rocket 3.9 06:06:03 10° SSW 06:11:11 68° WNW 06:16:21 10° NNE
Cosmos 2151 Rocket 4.1 06:07:13 10° NNW 06:11:23 38° W 06:15:31 10° SSW
SJ-12 4.4 06:08:48 10° NNE 06:12:54 67° ESE 06:17:00 10° S
Cosmos 1607 4.2 06:07:04 10° SW 06:12:56 48° NW 06:18:55 10° NNE
CZ-4C R/B 3.6 06:10:36 10° W 06:14:35 20° NW 06:18:57 10° N
Meteor 1-27 Rocket 3.8 06:12:09 10° SSW 06:17:49 61° W 06:23:39 10° N
Cosmos 1606 3.9 06:16:23 10° SW 06:19:27 22° WNW 06:22:34 10° NNW
CSL-04 Rocket 3.7 06:14:42 10° N 06:20:03 65° WNW 06:25:26 10° SSW
ATLAS 3B R/B 3.2 06:15:49 10° SW 06:23:05 49° NW 06:30:08 10° NNE
Orbus 7S? 4.4 06:20:05 10° SW 06:29:49 78° NW 06:33:54 10° NE
